Weather in Srednee

Ukraine / Zakarpattia District     48°32′20″N   22°30′25″E
temp.,
°C
wind,
m/s
gust,
m/s
humid.,
%
clouds,
%
prec.,
mm/h
press.,
hPa
HPBL,
m
11 may, tue
tue1100:00+13ene22820 0.0 101820
03:00+12ene22840 0.0 101712
06:00+11ene22811 0.0 101712
09:00+17se12675 0.0 1017196
12:00+21s22615 0.0 1016594
15:00+23s22562 0.0 1014938
18:00+23sse23580 0.0 1012936
21:00+17ene22770 0.0 101111
12 may, wed
wed1200:00+15ene33820 0.0 101124
03:00+14ene22840 0.0 101015
06:00+13ne22860 0.0 100919
09:00+18se12710 0.0 1009264
12:00+22s22580 0.0 1007871
15:00+23s225616 0.3 10061077
18:00+16ne469199 3.6 1005150
21:00+14ene22826 4.2 100415
13 may, thu
thu1300:00+13ene229177 0.3 100330
03:00+11e2393100 0.4 100350
06:00+13e3697100 1.6 1003247
09:00+12se4798100 4.9 1004372
12:00+12sse4898100 2.3 1004689
15:00+12se4898100 4.6 1004454
18:00+13se4794100 1.5 1003405
21:00+12sse019597 3.6 100327
14 may, fri
fri1400:00+11se2298100 1.4 100568
03:00+11se3598100 1.5 1005160
06:00+10sse3598100 0.1 1006272
09:00+10s3694100 0.3 1007526
12:00+13sw5781100 0.4 10081157
15:00+14sw6881100 1.3 10091099
18:00+15wsw5107697 0.6 10091268
21:00+11sw3492100 1.3 101071
15 may, sat
sat1500:00+9ese1195100 0.3 101213
03:00+8e2296100 0.3 101237
06:00+9ese239790 0.1 101276
09:00+12se348889 0.1 1012443
12:00+12sse3493100 0.4 1013354
15:00+17se337110 0.6 1012867
18:00+18sse12655 0.0 1010844
21:00+13nnw228665 0.0 101014